Regional Weather Roundup
Issued by NWS Newport/Morehead, NC

Current Version | Previous Version | Text Only | Print | Product List | Glossary On
Versions: 1 2 3 4 5 6 7 8 9 10 11 12 13 14 15 16 17 18 19 20 21 22 23 24 25 26 27 28 29 30 31 32 33 34 35 36 37 38 39 40 41 42 43 44 45 46 47 48 49 50
000
ASUS42 KMHX 270624
RWRMHX
WEATHER ROUNDUP FOR EASTERN NORTH CAROLINA
NATIONAL WEATHER SERVICE NEWPORT/MOREHEAD CITY NC
200 AM EDT MON APR 27 2015

NOTE: "FAIR" INDICATES FEW OR NO CLOUDS BELOW 12,000 FEET
WITH NO SIGNIFICANT WEATHER AND/OR OBSTRUCTIONS TO VISIBILITY

NCZ015>017-031-032-045>047-102-103-270700-
NORTH COAST

CITY           SKY/WX    TMP DP  RH WIND       PRES   REMARKS
EDENTON        CLEAR     42  41  97 CALM      29.75S
ELIZABETH CITY CLEAR     43  41  93 CALM      29.75S
KITTY HAWK     PTCLDY    50  39  67 CALM      29.72F
MANTEO         CLEAR     44  38  81 CALM      29.74S

$$

NCZ045>047-081-094-103-104-270700-
CENTRAL COAST

CITY           SKY/WX    TMP DP  RH WIND       PRES   REMARKS
FRISCO         PTCLDY    51  41  68 NE8       29.72S
SWANQUARTER      N/A     46 N/A N/A N1        29.71S

$$

NCZ095-097-098-100-101-270700-
SOUTHERN COAST

CITY           SKY/WX    TMP DP  RH WIND       PRES   REMARKS
BEAUFORT       CLOUDY    51  47  86 N7        29.72F
CEDAR ISLAND     N/A     57 N/A N/A N12G18    29.77S
JACKSONVILLE   MOCLDY    51  48  89 W7        29.77R
PINEY ISLAND   CLOUDY   N/A N/A N/A N10       29.72F
WILMINGTON     CLOUDY    51  49  92 NW6       29.77S


$$

NCZ011>013-027>030-043-044-078>080-089-090>093-098-270700-
COASTAL PLAIN

CITY           SKY/WX    TMP DP  RH WIND       PRES   REMARKS
AHOSKIE        FOG       42  42  99 CALM      29.77R VSB 1/2
CLINTON        MOCLDY    50  50 100 CALM      29.78F
ELIZABETHTOWN  LGT RAIN  51  51 100 CALM      29.78S
GOLDSBORO      MOCLDY    48  47  97 CALM      29.75F
GREENVILLE     CLEAR     45  45 100 CALM      29.79S
HAVELOCK       CLOUDY    51  47  86 NW7       29.76F
KENANSVILLE    MOCLDY    49  48  94 CALM      29.77F
KINSTON        CLEAR     48  47  97 CALM      29.77F
NEW BERN       MOCLDY    50  46  86 NW5       29.76F
RICHLANDS      CLOUDY    48  45  87 W5        29.77R
ROCKY MOUNT    CLEAR     45  44  97 CALM      29.78R
WASHINGTON     PTCLDY    44  44  98 CALM      29.76S
WHITEVILLE     CLOUDY    51  49  92 CALM      29.77S

$$

AMZ130-135-150-152-154-156-158-170-250-252-270-ANZ085-086-088-633-658-670-270700-
MARINE OBSERVATIONS

STATION/POSITION TIME  TEMP    WIND        PRES    WAVE   SWELL
                       AIR SEA DIR/SP/G            HT/PER HT/PER
                 (UTC) (F)     (DEG/KT/KT) (MB)    (FT/S) (FT/S)
CHESAPEAKE LIGHT 0600   50      CALM  /  1 1007.3
64 E VA BEACH    0550   54 55  350/ 12/ 14 1005.3    5/ 7   3/ 7
DUCK             0500   53 54   30/  6/  7 1006.0
2 E DUCK         0511      54                N/A     4/ 6
10 NE DUCK       NOT AVBL
OREGON INLET     0500   48 55  340/  4/  5 1006.8
HATTERAS CG      0500           10/ 13/ 17   N/A
DIAMOND BUOY     0550   59 76   10/ 19/ 23 1005.1    6/10   3/10
CAPE LOOKOUT     0600   54     360/  9/ 12 1006.1
BEAUFORT LAB     0500          340/  5/  9   N/A
27 SE WRIGHTSVLE 0500   56 73   20/ 16/ 17   N/A
5 SE WRIGHTSVLE  0508   55 65   30/ 14/ 17 1007.1
225 S CAPE HAT   0550   67 70   20/  8/ 10 1004.5    7/ 8   7/ 8
41 SE CHARLESTON 0550   65 71   30/ 17/ 21 1005.1    5/ 6

$$



USA.gov is the U.S. government's official web portal to all federal, state and local government web resources and services.